GW3899 Weather Reports


time (UTC)temp
C
wind
direction
speed
KPH
gust
KPH
rain 1hr
cm
rain 24hr
cm
rain mn
cm
humidity
%
barometer
mb
20260504050404 19 141 6.4 8.0 0.00 0.00 0.00 1 1010.0
20260504045901 19 167 11.3 14.5 0.00 0.00 0.00 1 1010.1
20260504045356 19 173 8.0 9.7 0.00 0.00 0.00 1 1010.2
20260504044853 19 180 8.0 9.7 0.00 0.00 0.00 1 1010.3
20260504044350 19 172 6.4 8.0 0.00 0.00 0.00 1 1010.2
20260504043848 20 200 9.7 11.3 0.00 0.00 0.00 1 1010.4
20260504043344 20 186 11.3 14.5 0.00 0.00 0.00 1 1010.4
20260504042842 20 190 4.8 8.0 0.00 0.00 0.00 1 1010.3
20260504042338 20 164 9.7 16.1 0.00 0.00 0.00 1 1010.5
20260504041834 20 198 9.7 12.9 0.00 0.00 0.00 1 1010.5
20260504041331 20 162 11.3 12.9 0.00 0.00 0.00 1 1010.8
20260504040827 20 187 8.0 9.7 0.00 0.00 0.00 1 1010.4
20260504040325 20 193 14.5 16.1 0.00 0.00 0.00 1 1010.3
20260504035820 20 139 6.4 9.7 0.00 0.00 0.00 1 1010.6
20260504035318 20 196 4.8 8.0 0.00 0.00 0.00 1 1010.5
20260504034815 20 184 8.0 9.7 0.00 0.00 0.00 1 1010.7
20260504034313 20 177 9.7 12.9 0.00 0.00 0.00 1 1010.6
20260504033810 20 124 9.7 14.5 0.00 0.00 0.00 1 1010.8
20260504033307 20 188 8.0 9.7 0.00 0.00 0.00 1 1010.9
20260504032803 20 202 4.8 4.8 0.00 0.00 0.00 1 1010.8
20260504032301 20 158 8.0 11.3 0.00 0.00 0.00 1 1010.8
20260504031757 21 190 9.7 11.3 0.00 0.00 0.00 1 1010.9
20260504031255 21 194 8.0 9.7 0.00 0.00 0.00 1 1010.8
20260504030751 21 166 9.7 14.5 0.00 0.00 0.00 1 1010.9
20260504030248 21 219 12.9 16.1 0.00 0.00 0.00 1 1010.9
20260504025744 21 199 11.3 14.5 0.00 0.00 0.00 1 1010.9
20260504025241 21 193 8.0 12.9 0.00 0.00 0.00 1 1011.0
20260504024733 21 176 6.4 8.0 0.00 0.00 0.00 1 1010.8
20260504024229 21 183 8.0 9.7 0.00 0.00 0.00 1 1010.9
20260504023726 21 198 8.0 11.3 0.00 0.00 0.00 1 1010.9
20260504023222 21 188 4.8 4.8 0.00 0.00 0.00 1 1010.9
20260504022718 21 185 8.0 12.9 0.00 0.00 0.00 1 1010.6
20260504022215 21 155 3.2 3.2 0.00 0.00 0.00 1 1010.7
20260504021712 21 180 4.8 4.8 0.00 0.00 0.00 1 1010.8
20260504021209 21 164 4.8 8.0 0.00 0.00 0.00 1 1010.8
20260504020705 21 185 11.3 12.9 0.00 0.00 0.00 1 1010.6
20260504020201 21 213 8.0 11.3 0.00 0.00 0.00 1 1010.6
20260504015659 21 176 6.4 8.0 0.00 0.00 0.00 1 1010.5
20260504015155 21 184 8.0 9.7 0.00 0.00 0.00 1 1010.7
20260504014650 21 180 8.0 12.9 0.00 0.00 0.00 1 1010.8
20260504014147 21 175 8.0 9.7 0.00 0.00 0.00 1 1010.4
20260504013645 21 196 6.4 8.0 0.00 0.00 0.00 1 1010.4
20260504013142 21 161 4.8 4.8 0.00 0.00 0.00 1 1010.5
20260504012639 22 177 8.0 9.7 0.00 0.00 0.00 1 1010.5
20260504012137 22 196 4.8 4.8 0.00 0.00 0.00 1 1010.4
20260504011633 22 191 6.4 9.7 0.00 0.00 0.00 1 1010.6
20260504011130 22 172 4.8 4.8 0.00 0.00 0.00 1 1010.4
20260504010626 22 169 3.2 3.2 0.00 0.00 0.00 1 1010.4
20260504010122 22 168 3.2 3.2 0.00 0.00 0.00 1 1010.4
20260504005619 22 193 6.4 8.0 0.00 0.00 0.00 1 1010.4
20260504005116 23 197 6.4 9.7 0.00 0.00 0.00 1 1010.4
20260504004614 23 174 4.8 4.8 0.00 0.00 0.00 1 1010.3
20260504004111 23 196 4.8 4.8 0.00 0.00 0.00 1 1010.3
20260504003607 23 189 4.8 8.0 0.00 0.00 0.00 1 1010.3
20260504003103 23 183 6.4 8.0 0.00 0.00 0.00 1 1010.4
20260504002600 23 173 6.4 8.0 0.00 0.00 0.00 1 1010.5
20260504002058 24 160 3.2 3.2 0.00 0.00 0.00 1 1010.4
20260504001555 24 185 4.8 8.0 0.00 0.00 0.00 1 1010.4
20260504001051 25 185 4.8 4.8 0.00 0.00 0.00 1 1010.4
20260504000548 25 202 4.8 8.0 0.00 0.00 0.00 1 1010.3
20260504000046 25 143 4.8 8.0 0.00 0.00 0.00 1 1010.5
20260503235544 25 186 6.4 8.0 0.00 0.00 0.00 1 1010.3
20260503235041 25 233 11.3 12.9 0.00 0.00 0.00 1 1010.5
20260503234538 25 210 6.4 8.0 0.00 0.00 0.00 1 1010.5
20260503234037 25 227 9.7 11.3 0.00 0.00 0.00 1 1010.5
20260503233532 25 204 6.4 8.0 0.00 0.00 0.00 1 1010.4
20260503233029 25 174 4.8 4.8 0.00 0.00 0.00 1 1010.3
20260503232526 25 134 16.1 17.7 0.00 0.00 0.00 1 1010.4
20260503232023 26 202 14.5 17.7 0.00 0.00 0.00 1 1010.4
20260503231521 26 172 6.4 9.7 0.00 0.00 0.00 1 1010.5
20260503231018 26 188 6.4 9.7 0.00 0.00 0.00 1 1010.5
20260503230514 25 194 4.8 8.0 0.00 0.00 0.00 1 1010.6
20260503230012 25 195 11.3 12.9 0.00 0.00 0.00 1 1010.6
20260503225508 25 193 12.9 14.5 0.00 0.00 0.00 1 1010.6
20260503224958 26 226 9.7 12.9 0.00 0.00 0.00 1 1010.7
20260503224456 25 208 8.0 9.7 0.00 0.00 0.00 1 1010.7
20260503223953 25 247 16.1 20.9 0.00 0.00 0.00 1 1010.6
20260503223451 26 191 9.7 12.9 0.00 0.00 0.00 1 1010.6
20260503222946 25 179 6.4 9.7 0.00 0.00 0.00 1 1010.5
20260503222445 25 189 9.7 11.3 0.00 0.00 0.00 1 1010.6
20260503221943 25 215 17.7 25.7 0.00 0.00 0.00 1 1010.6
20260503221441 25 176 12.9 16.1 0.00 0.00 0.00 1 1010.5
20260503220937 26 179 4.8 4.8 0.00 0.00 0.00 1 1010.6
20260503220433 26 208 9.7 12.9 0.00 0.00 0.00 1 1010.8
20260503215931 25 241 14.5 16.1 0.00 0.00 0.00 1 1010.6
20260503215427 25 221 20.9 24.1 0.00 0.00 0.00 1 1010.9
20260503214925 25 210 11.3 12.9 0.00 0.00 0.00 1 1010.8
20260503214423 25 220 12.9 14.5 0.00 0.00 0.00 1 1010.9
20260503213920 25 216 17.7 22.5 0.00 0.00 0.00 1 1010.9
20260503213418 25 237 16.1 22.5 0.00 0.00 0.00 1 1011.0
20260503212914 25 209 19.3 24.1 0.00 0.00 0.00 1 1010.8
20260503212412 25 193 17.7 24.1 0.00 0.00 0.00 1 1011.1
20260503211909 25 180 6.4 9.7 0.00 0.00 0.00 1 1011.1
20260503211405 25 214 12.9 14.5 0.00 0.00 0.00 1 1010.8
20260503210900 25 221 11.3 14.5 0.00 0.00 0.00 1 1011.0
20260503210358 25 218 16.1 17.7 0.00 0.00 0.00 1 1011.2
20260503205852 25 223 8.0 11.3 0.00 0.00 0.00 1 1011.3
20260503205350 25 203 8.0 9.7 0.00 0.00 0.00 1 1011.4
20260503204846 25 220 11.3 16.1 0.00 0.00 0.00 1 1011.5
20260503204343 25 221 14.5 22.5 0.00 0.00 0.00 1 1011.4
20260503203840 25 214 16.1 22.5 0.00 0.00 0.00 1 1011.4
20260503203338 25 199 16.1 20.9 0.00 0.00 0.00 1 1011.8
20260503202835 25 171 8.0 9.7 0.00 0.00 0.00 1 1011.8
20260503202333 25 204 14.5 17.7 0.00 0.00 0.00 1 1012.2
20260503201831 25 190 11.3 14.5 0.00 0.00 0.00 1 1012.2
20260503201327 24 205 12.9 14.5 0.00 0.00 0.00 1 1012.4
20260503200825 24 209 16.1 17.7 0.00 0.00 0.00 1 1012.9
20260503200321 23 213 11.3 11.3 0.00 0.00 0.00 1 1012.6
20260503195818 24 195 14.5 20.9 0.00 0.00 0.00 1 1012.9
20260503195315 23 200 11.3 12.9 0.00 0.00 0.00 1 1012.6
20260503194812 23 199 16.1 20.9 0.00 0.00 0.00 1 1012.8
20260503194308 23 180 9.7 11.3 0.00 0.00 0.00 1 1012.8
20260503193804 23 235 20.9 24.1 0.00 0.00 0.00 1 1012.9
20260503193300 23 228 16.1 20.9 0.00 0.00 0.00 1 1013.2
20260503192756 23 188 17.7 24.1 0.00 0.00 0.00 1 1013.1
20260503192251 23 197 14.5 17.7 0.00 0.00 0.00 1 1013.4
20260503191748 23 208 14.5 20.9 0.00 0.00 0.00 1 1013.7
20260503191245 23 165 14.5 25.7 0.00 0.00 0.00 1 1013.5
20260503190742 23 177 8.0 9.7 0.00 0.00 0.00 1 1013.9
20260503190239 22 186 8.0 12.9 0.00 0.00 0.00 1 1013.6
20260503185736 22 176 12.9 14.5 0.00 0.00 0.00 1 1013.9
20260503185232 22 197 12.9 17.7 0.00 0.00 0.00 1 1014.1
20260503184727 22 218 11.3 16.1 0.00 0.00 0.00 1 1014.3
20260503184223 22 190 9.7 12.9 0.00 0.00 0.00 1 1014.4
20260503183720 22 187 19.3 22.5 0.00 0.00 0.00 1 1014.4
20260503183217 22 202 11.3 14.5 0.00 0.00 0.00 1 1014.6
20260503182715 22 204 19.3 22.5 0.00 0.00 0.00 1 1014.7
20260503182214 22 213 11.3 12.9 0.00 0.00 0.00 1 1014.9
20260503181709 22 209 14.5 16.1 0.00 0.00 0.00 1 1015.0
20260503181207 22 263 6.4 9.7 0.00 0.00 0.00 1 1015.2
20260503180703 21 232 11.3 14.5 0.00 0.00 0.00 1 1015.1
20260503180202 21 198 8.0 14.5 0.00 0.00 0.00 1 1015.4
20260503175658 21 196 9.7 11.3 0.00 0.00 0.00 1 1015.7
20260503175156 21 210 20.9 22.5 0.00 0.00 0.00 1 1015.6
20260503174651 21 220 8.0 11.3 0.00 0.00 0.00 1 1015.7
20260503174149 21 207 12.9 20.9 0.00 0.00 0.00 1 1015.7
20260503173644 21 194 11.3 12.9 0.00 0.00 0.00 1 1015.7
20260503173141 21 182 11.3 14.5 0.00 0.00 0.00 1 1015.9
20260503172638 21 200 11.3 12.9 0.00 0.00 0.00 1 1015.8
20260503172135 21 200 11.3 12.9 0.00 0.00 0.00 1 1016.3
20260503171631 20 188 17.7 24.1 0.00 0.00 0.00 1 1016.4
20260503171129 20 197 11.3 12.9 0.00 0.00 0.00 1 1016.3
20260503170626 20 211 9.7 16.1 0.00 0.00 0.00 1 1016.5
20260503170122 20 188 8.0 12.9 0.00 0.00 0.00 1 1016.4
20260503150514 15 232 14.5 17.7 0.00 0.00 0.00 1 1018.5
20260503131401 11 183 8.0 11.3 0.00 0.00 0.00 1 1019.2
20260503130858 11 181 6.4 8.0 0.00 0.00 0.00 1 1019.1
20260503130356 10 186 6.4 9.7 0.00 0.00 0.00 1 1019.2
20260503110755 8 149 4.8 4.8 0.00 0.00 0.00 1 1018.8
20260503110252 8 139 3.2 3.2 0.00 0.00 0.00 1 1018.8
20260503100219 7 148 4.8 4.8 0.00 0.00 0.00 1 1018.9
20260503090148 6 146 0.0 1.6 0.00 0.00 0.00 1 1019.5
20260503081623 6 146 0.0 0.0 0.00 0.00 0.00 1 1019.6
20260503081121 6 145 0.0 0.0 0.00 0.00 0.00 1 1019.8
20260503080616 6 153 1.6 1.6 0.00 0.00 0.00 1 1019.5
20260503080113 6 142 0.0 0.0 0.00 0.00 0.00 1 1019.8
20260503072550 6 141 0.0 0.0 0.00 0.00 0.00 1 1019.9
20260503072047 6 139 0.0 0.0 0.00 0.00 0.00 1 1019.9
20260503071544 6 139 0.0 0.0 0.00 0.00 0.00 1 1020.0
20260503071041 6 147 1.6 3.2 0.00 0.00 0.00 1 1020.1
20260503070537 6 141 0.0 0.0 0.00 0.00 0.00 1 1020.0